Main page
METAR-TAF:

METAR-TAF

Airports :

RAF Spadeadam

Spadeadam, England

latitude: 55-03N, longitude: 002-33W, elevation: 325 m

Current weather observation

The report was made 1 hour and 9 minutes ago, at 21:50 UTC
Wind 15 kt from the East/Northeast
Temperature 3°C
Humidity 100%
Pressure 1024 hPa
Visibility 10 km or more
rain

METAR: EGOM 192150Z AUTO 06015KT 9999 RA SCT011/// SCT024/// 03/03 Q1024

Time: 22:59 (22:59 UTC)


TAF: missing

Weather observations and forecasts of more than 4000 airports (METAR and TAF reports).

The available stations are represented by yellow and red dots on the map.

Hover mouse over dot to see the name of the station.

Then click to see weather observations and forecasts.

To change the map : click on the green buttons with a black cross to zoom in, on the green button with a dash to zoom out, or on the green arrows for adjacent maps.


METAR-TAF: